This is the latest recevied weather packets stored in our database for station/object N3RPH-13. If no packets are shown the sender has not sent any weather packets the latest 10 day(s).
| Time | Temp. | Humidity | Pressure | Rain* | Wind** | Luminosity | Snow |
|---|---|---|---|---|---|---|---|
| 1788048640 | 76° F | 41% | 765.4 mmHg | 0 in | - | 0 W/m² | - |
| 1788048340 | 76° F | 41% | 765.3 mmHg | 0 in | - | 0 W/m² | - |
| 1788048041 | 76° F | 41% | 765.4 mmHg | 0 in | - | 0 W/m² | - |
| 1788047740 | 76° F | 41% | 765.6 mmHg | 0 in | - | 0 W/m² | - |
| 1788047440 | 76° F | 40% | 765.6 mmHg | 0 in | - | 0 W/m² | - |
| 1788047141 | 76° F | 40% | 765.4 mmHg | 0 in | - | 1 W/m² | - |
| 1788046840 | 77° F | 40% | 765.4 mmHg | 0 in | - | 3 W/m² | - |
| 1788046541 | 77° F | 40% | 765.4 mmHg | 0 in | - | 5 W/m² | - |
| 1788046239 | 77° F | 39% | 765.5 mmHg | 0 in | - | 9 W/m² | - |
| 1788045939 | 77° F | 39% | 765.5 mmHg | 0 in | - | 14 W/m² | - |
| 1788045640 | 78° F | 39% | 765.4 mmHg | 0 in | - | 20 W/m² | - |
| 1788045339 | 78° F | 39% | 765.4 mmHg | 0 in | - | 23 W/m² | - |
| 1788045041 | 78° F | 39% | 765.4 mmHg | 0 in | - | 32 W/m² | - |
| 1788044740 | 79° F | 38% | 765.4 mmHg | 0 in | - | 39 W/m² | - |
| 1788044441 | 79° F | 38% | 765.4 mmHg | 0 in | - | 48 W/m² | - |
| 1788044140 | 78° F | 38% | 765.4 mmHg | 0 in | - | 57 W/m² | - |
| 1788043840 | 79° F | 36% | 765.4 mmHg | 0 in | - | 66 W/m² | - |
| 1788043540 | 80° F | 36% | 765.4 mmHg | 0 in | - | 77 W/m² | - |
| 1788043241 | 79° F | 36% | 765.4 mmHg | 0 in | - | 88 W/m² | - |
| 1788042940 | 80° F | 35% | 765.4 mmHg | 0 in | - | 100 W/m² | - |
| 1788042640 | 81° F | 35% | 765.3 mmHg | 0 in | - | 112 W/m² | - |
| 1788042340 | 81° F | 34% | 765.3 mmHg | 0 in | - | 125 W/m² | - |
| 1788042040 | 80° F | 35% | 765.4 mmHg | 0 in | - | 139 W/m² | - |
| 1788041740 | 81° F | 34% | 765.3 mmHg | 0 in | - | 153 W/m² | - |
| 1788041440 | 81° F | 34% | 765.1 mmHg | 0 in | - | 168 W/m² | - |
* Rain latest hour (hover to see other rain measurements)
** Current wind speed in m/s (hover to see current wind gust speed)